www.pogodaiklimat.ru

Погода и климат >> Архив погоды >> Индонезия >> Танджунгселор


ПОГОДА в Танджунгселоре

  • Прогноз погоды в Танджунгселоре
  • Монитор погоды в Танджунгселоре

АРХИВ ПОГОДЫ в Танджунгселоре

Время (UTC), дата Ветер
(напр.,м/с)
 
Видим.   Явления Облачность Т
(С)
Тd
(С)
f
(%)
Тe
(С)
Тes
(С)
Комфортность P
(гПа)
Po
(гПа)
Тmin
(С)
Tmax
(С)
R
(мм)
R24
(мм)
S
(см)
00 18.06 штиль 0 4000 м слаб. морось {дождь} 10/4
[Cb cap Ac As Ci fib]
+24.4 +23.7 96 +33 +35 очень
душно
1011.2 1011.1 +24.0 1
03 18.06 ЮВ 4 8000 м 9/3 450 м
[Cu hum Ac As Ci fib]
+28.4 +24.3 78 +40 +44 очень
душно
1010.9 1010.5 0.1
06 18.06 Ю 2 10 км {морось} 6/4 450 м
[Cu hum Ac trans Ci fib]
+31.6 +25.4 70 +46 +54 опасность
перегрева
1008.9 1008.5 0.1
09 18.06 штиль 0 10 км 6/3 450 м
[Cu hum Ac trans Ci fib]
+32.0 +25.5 69 +47 +48 опасность
перегрева
1006.9 1006.5
12 18.06 В 2 8000 м 6/4 450 м
[Cu hum Ac As Ci fib]
+28.0 +24.9 83 +40 +40 очень
душно
1008.8 1008.4 +33.1
15 18.06 штиль 0 8000 м 6/4
[Cb cap Ac As Ci fib]
+27.0 +24.8 88 +39 +39 очень
душно
1010.6 1010.2
18 18.06 В 6 4000 м слаб. дождь 9/4
[Cb cap Ac As Ci fib]
+24.4 +23.7 96 +33 +33 очень
душно
1010.5 1010.2 6
21 18.06 штиль 0 4000 м слаб. дождь 9/4
[Cb cap Ac As Ci fib]
+24.0 +23.6 98 +33 +33 очень
душно
1009.7 1009.4 17
00 19.06 Ю 4 8000 м {дождь} 6/3 450 м
[Cu hum Ac trans Ci fib]
+25.5 +23.8 90 +35 +36 очень
душно
1011.0 1010.7 +24.0 0.6
03 19.06 СВ 2 4000 м слаб. дождь 10/5 450 м
[Cu hum Ac As Ci fib]
+28.0 +25.5 86 +41 +46 опасность
перегрева
1010.5 1010.2 5
06 19.06 ЮВ 5 8000 м {дождь} 8/5 450 м
[Cu hum Ac As Ci fib]
+31.1 +25.6 73 +46 +49 опасность
перегрева
1007.8 1007.4 1
09 19.06 СВ 3 10 км 4/1 450 м
[Cu hum Ac As Ci fib]
+31.1 +25.6 73 +46 +47 опасность
перегрева
1006.6 1006.2
12 19.06 штиль 0 8000 м 3/1 450 м
[Cu hum Ac trans Ci fib]
+28.2 +26.0 88 +42 +42 опасность
перегрева
1008.4 1008.0 +33.9
15 19.06 штиль 0 8000 м зарница 6/3 450 м
[Cb cap Ac As Ci fib]
+26.9 +25.4 92 +39 +39 очень
душно
1009.6 1009.2
18 19.06 штиль 0 8000 м зарница 5/3 450 м
[Cb cap Ac As Ci fib]
+25.9 +24.9 94 +37 +37 очень
душно
1008.7 1008.3
21 19.06 Ю 3 8000 м 4/1 450 м
[Sc Ac As Ci fib]
+25.2 +23.7 91 +34 +34 очень
душно
1008.7 1008.4
00 20.06 Ю 1 8000 м 8/4 450 м
[Sc diur, vesp Ac As Ci fib]
+26.6 +23.8 85 +37 +39 очень
душно
1010.2 1009.8 +24.4 7
03 20.06 Ю 1 9000 м 8/4 450 м
[Sc diur, vesp Ac As Ci fib]
+31.0 +24.7 69 +44 +52 опасность
перегрева
1009.9 1009.5
06 20.06 штиль 0 5000 м в посл. час дождь {гроза} 9/5
[Cb cap Ac As Ci fib]
+27.0 +24.3 85 +38 +44 очень
душно
1007.6 1007.2 6
09 20.06 Ю 3 4000 м гроза, ливневой дождь 10/6
[Cb cap Ac As Ci fib]
+27.6 +25.5 88 +40 +41 очень
душно
1007.7 1007.3 0.0
12 20.06 штиль 0 8000 м {дождь} 8/4 450 м
[Cu hum Ac As Cs]
+25.0 +24.0 94 +34 +34 очень
душно
1008.9 1008.5 +32.1 13
15 20.06 штиль 0 8000 м 10/4 450 м
[Cu hum Ac As Cs]
+24.8 +23.8 94 +34 +34 очень
душно
1010.0 1009.6
18 20.06 штиль 0 8000 м 8/3 450 м
[Cu hum Ac As Cs]
+24.4 +23.7 96 +33 +33 очень
душно
1009.2 1008.8
21 20.06 штиль 0 8000 м 5/3 450 м
[Cu hum Ac As Cs]
+24.0 +23.3 96 +32 +32 очень
душно
1008.8 1008.4
00 21.06 ЮВ 2 8000 м 6/3 450 м
[Cu hum Ac As Cs]
+25.4 +24.2 93 +35 +38 очень
душно
1009.9 1009.5 +23.9 19
03 21.06 Ю 4 8000 м 5/4 450 м
[Cu hum Ac As Ci fib]
+30.8 +24.5 69 +43 +50 опасность
перегрева
1008.6 1008.2
06 21.06 Ю 2 8000 м 8/5 450 м
[Cu hum Ac und Ci fib]
+31.0 +23.8 66 +43 +48 опасность
перегрева
1006.3 1006.0
09 21.06 В 5 8000 м 6/4 450 м
[Cu hum Ac As Ci fib]
+30.7 +25.7 75 +46 +46 опасность
перегрева
1005.6 1005.2
12 21.06 штиль 0 8000 м 6/3 450 м
[Cu hum Ac trans Ci fib]
+27.2 +25.7 92 +40 +40 очень
душно
1007.9 1007.5 +32.4
15 21.06 штиль 0 8000 м 5/3 450 м
[Cu hum Ac trans Ci fib]
+26.4 +25.5 95 +39 +39 очень
душно
1009.0 1008.6
18 21.06 штиль 0 8000 м 8/3 450 м
[Cu hum Ac trans Ci fib]
+26.4 +25.2 93 +38 +38 очень
душно
1007.8 1007.4
21 21.06 штиль 0 8000 м 8/3 450 м
[Cu hum Ac trans Ci fib]
+25.9 +25.1 95 +37 +37 очень
душно
1007.8 1007.4
00 22.06 Ю 2 9000 м 4/1 450 м
[Cu hum Ac trans Ci fib]
+27.8 +25.2 86 +40 +44 очень
душно
1008.5 1008.2 +25.3
03 22.06 ЮВ 6 10 км 6/4 450 м
[Cu hum Ac trans Ci fib]
+31.6 +24.5 66 +44 +47 опасность
перегрева
1007.9 1007.6
06 22.06 ЮВ 4 10 км 5/5 450 м
[Cu hum Ac lent Ci fib]
+34.2 +24.0 55 +46 +51 опасность
перегрева
1005.1 1004.7
09 22.06 СВ 21 8000 м 6/4 450 м
[Cu hum Ac As Ci fib]
+30.8 +26.0 76 +46 +46 опасность
перегрева
1005.3 1005.0
12 22.06 В 5 8000 м гроза без осадков 8/4
[Cb cap Ac As Ci fib]
+28.1 +25.0 83 +40 +40 очень
душно
1007.6 1007.2 +34.6
15 22.06 штиль 0 6000 м в посл. час дождь {гроза} 10/5
[Cb cap As op]
+25.6 +24.1 91 +35 +35 очень
душно
1009.2 1008.8 0.8
18 22.06 Ю 2 7000 м зарница 10/5
[Cb cap As op]
+25.2 +23.9 93 +35 +35 очень
душно
1008.6 1008.2 0.8
21 22.06 штиль 0 8000 м 8/5
[Cb cap As op Ci fib]
+24.7 +23.6 94 +34 +34 очень
душно
1008.4 1008.1
00 23.06 штиль 0 8000 м 8/3 450 м
[Sc Ac As Cs]
+25.2 +23.8 92 +34 +37 очень
душно
1010.0 1009.6 +24.4 0.8
03 23.06 Ю 2 9000 м 9/5 450 м
[Cu hum Ac As Ci fib]
+30.0 +25.1 75 +43 +49 опасность
перегрева
1009.5 1009.1
06 23.06 Ю 3 10 км 5/4 450 м
[Cu hum Ac trans Ci fib]
+32.5 +25.0 65 +46 +54 опасность
перегрева
1006.8 1006.4
09 23.06 СВ 5 10 км 6/4 450 м
[Cu hum Ac As Ci fib]
+31.1 +26.3 76 +47 +48 опасность
перегрева
1006.2 1005.8
12 23.06 штиль 0 8000 м зарница 8/4
[Cb cap Ac As Ci fib]
+27.1 +24.4 85 +38 +38 очень
душно
1008.4 1008.0 +33.0
15 23.06 штиль 0 8000 м зарница 8/4
[Cb cap Ac As Ci fib]
+25.3 +23.6 90 +34 +34 очень
душно
1010.4 1010.0
18 23.06 штиль 0 8000 м зарница 8/5
[Cb cap Ac As Ci fib]
+24.8 +23.8 94 +34 +34 очень
душно
1009.8 1009.5
21 23.06 штиль 0 8000 м 5/3 450 м
[Cu hum Ac As Ci fib]
+25.0 +24.0 94 +34 +34 очень
душно
1010.3 1009.9
00 24.06 штиль 0 6000 м 9/4 450 м
[Cu hum Ac As Ci fib]
+26.0 +24.0 89 +36 +38 очень
душно
1012.0 1011.7 +24.6
03 24.06 В 3 8000 м 9/5 450 м
[Cu hum Ac As Ci fib]
+30.1 +25.7 77 +44 +49 опасность
перегрева
1011.6 1011.2
06 24.06 ЮЗ 5 4000 м слаб. морось {дождь} 8/5
[Cb cap Ac trans Ci fib]
+26.9 +23.8 83 +37 +40 очень
душно
1009.5 1009.2 0.0
09 24.06 СВ 2 9000 м {морось} 5/3 450 м
[Cu hum Ac As Ci fib]
+30.2 +24.4 71 +42 +44 опасность
перегрева
1008.6 1008.2 8
12 24.06 В 2 8000 м {дождь} 8/4 450 м
[Sc Ac As Ci fib]
+28.1 +25.3 85 +41 +41 опасность
перегрева
1010.8 1010.4 +32.2 8
15 24.06 штиль 0 8000 м 8/4 450 м
[Sc Ac As Ci fib]
+26.2 +25.1 94 +38 +38 очень
душно
1012.1 1011.7
18 24.06 штиль 0 8000 м 8/4 450 м
[Sc Ac As Ci fib]
+25.6 +24.9 96 +36 +36 очень
душно
1010.8 1010.5

 

Местоположение метеостанции Танджунгселор (Индонезия): широта 2.85 долгота 117.33 высота над уровнем моря 50 м.

В архиве по умолчанию представлена погода в Танджунгселоре за последнюю неделю. Архивные данные за месяц целиком и за предыдущие месяцы, начиная с января 2011 года, Вы можете получить, выбрав интересующий диапазон дат из раскрывающегося списка и нажав кнопку "Ввод!".


*Определитесь, кто Вы:
робот инопланетянин человек

Внимание! Время в таблицах - всемирное. Для получения местного времени необходимо прибавить поправку, которая равна 8 ч.

Смотрите также архив погоды в соседних городах и на ближайших метеорологических станциях:

Погода в Таракане (Индонезия) (59 км)
Погода в Танджунгредепе (Индонезия) (82 км)
Погода в Тавау (Малайзия) (169 км)
Погода в Лонгбаване (Индонезия) (208 км)
Погода в Сандакане (Малайзия) (349 км)
Погода в Бруней аэропорту (Бруней) (353 км)
Погода в Лабуане (Малайзия) (357 км)
Погода в Кота-Кинабалу (Малайзия) (371 км)
Погода в Самаринде (Индонезия) (386 км)
Погода в Мири (Малайзия) (407 км)

Пояснения к столбцам:

Ветер - указаны скорость ветра в м/с - средняя за 10 мин, порывы в срок и между сроками (в фигурных скобках) и направление, откуда дует ветер: С - северный, СВ - северо-восточный, В - восточный, ЮВ - юго-восточный, Ю - южный, ЮЗ - юго-западный, З - западный, СЗ - северо-западный.
Видимость - горизонтальная дальность видимости в метрах или километрах. При видимости от 1 до 10 км при отсутствии осадков обычно наблюдается дымка, при ухудшении видимости до 1 км и менее - туман. В сухую погоду видимость может ухудшаться дымом, пылью или мглою.
Явления - указаны атмосферные явления, наблюдавшиеся в срок или в последний час перед сроком; фигурными скобками обозначены явления, наблюдавшиеся между сроками (за 1-3 часа до срока); квадратными скобками обозначены град или гололедные отложения с указанием их диаметра в мм.
Облачность - указаны через наклонную черту общая и нижняя облачность в баллах и высота нижней границы облаков в метрах; квадратными скобками обозначены формы облаков: Ci - перистые, Cs - перисто-слоистые, Cc - перисто-кучевые, Ac - высококучевые, As - высокослоистые, Sc - слоисто-кучевые, Ns - слоисто-дождевые, Cu - кучевые, Cb - кучево-дождевые. Подробнее классификацию облаков см. в Атласе облаков (PDF).
T - Температура воздуха - температура, измеренная на высоте 2 м над землей.
Td - Температура точки росы - температура, при понижении до которой содержащийся в воздухе водяной пар достигнет насыщения.
f - Относительная влажность воздуха - влажноcть воздуха, измеренная на высоте 2 м над землей.
Te - Эффективная температура - температура, которую ощущает одетый по сезону человек в тени. Характеристика душности погоды. При расчете учитывается влияние влажности воздуха и скорости ветра на теплоощущения человека.
Tes - Эффективная температура на солнце - температура, которую ощущает человек, с поправкой на солнечный нагрев. Характеристика знойности погоды. Зависит от высоты солнца над горизонтом, облачности и скорости ветра. Ночью, в пасмурную погоду, а также при ветре 12 м/с и более поправка равна нулю.
P - Атмосферное давление - приведенное к уровню моря атмосферное давление.
Po - Атмосферное давление - измеренное на уровне метеостанции атмосферное давление.
Tmin - Минимальная температура - минимум температуры воздуха на высоте 2 м над землей.
Tmax - Максимальная температура - максимум температуры воздуха на высоте 2 м над землей.
R - Количество осадков - Количество выпавших осадков за период времени, мм. При наведении курсора мыши на число - период времени, за который выпало указанное количество осадков.
R24 - Количество осадков - Количество выпавших осадков за 24 часа, мм.
S - Снежный покров - Высота снежного покрова, см. При наведении курсора мыши на число - состояние снежного покрова и степень покрытия местности в баллах.